Location: Chircca
(13.7944°S, 72.0608°W)
Time: 05:50:17
(UTC+00:00)

Palapa B4 Rocket - Pass Details

Date: 14 July 2020
Orbit: 502 x 2696 km, 19.7° (Epoch: 14 August)

Event Time Altitude Azimuth Distance (km) Brightness Sun altitude
Exits shadow 10:08:15 19° 289° (WNW) 1,555 4.7 -15.5°
Maximum altitude 10:11:38 84° 16° (NNE) 785 3.5 -14.7°
Drops below altitude 10° 10:18:34 10° 104° (ESE) 3,009 7.5 -13.2°
Sets 10:22:10 0° 104° (ESE) 4,349 8.4 -12.3°
